Time,TemperatureF,DewpointF,PressureIn,WindDirection,WindDirectionDegrees,WindSpeedMPH,WindSpeedGustMPH,Humidity,HourlyPrecipIn,Conditions,Clouds,dailyrainin,SolarRadiationWatts/m^2,SoftwareType,DateUTC
2013-07-21 00:01:00,69.7,60.7,29.78,WSW,252,1.6,3.5,73,0.00,CLR,,0.00,0.0,WeatherDisplay:10.37,2013-07-21 07:01:00,
2013-07-21 00:06:00,69.7,60.7,29.78,WSW,250,2.2,3.5,73,0.00,CLR,,0.00,0.0,WeatherDisplay:10.37,2013-07-21 07:06:00,
2013-07-21 00:11:00,69.7,60.7,29.78,SW,217,0.4,1.1,73,0.00,CLR,,0.00,0.0,WeatherDisplay:10.37,2013-07-21 07:11:00,
2013-07-21 00:16:00,69.7,60.7,29.78,SW,232,1.5,3.5,73,0.00,CLR,,0.00,0.0,WeatherDisplay:10.37,2013-07-21 07:16:00,
2013-07-21 00:22:00,69.5,60.5,29.78,SW,223,0.1,1.0,73,0.00,CLR,,0.00,0.0,WeatherDisplay:10.37,2013-07-21 07:22:00,
2013-07-21 00:27:00,69.4,60.4,29.78,SW,223,0.2,1.1,73,0.00,CLR,,0.00,0.0,WeatherDisplay:10.37,2013-07-21 07:27:00,
2013-07-21 00:32:00,69.3,60.3,29.77,SW,234,0.0,0.0,73,0.00,CLR,,0.00,0.0,WeatherDisplay:10.37,2013-07-21 07:32:00,
2013-07-21 00:37:00,69.2,60.2,29.77,SW,234,0.1,1.1,73,0.00,CLR,,0.00,0.0,WeatherDisplay:10.37,2013-07-21 07:37:00,
2013-07-21 00:42:00,69.1,60.5,29.78,SW,234,0.0,0.0,74,0.00,CLR,,0.00,0.0,WeatherDisplay:10.37,2013-07-21 07:42:00,
2013-07-21 00:47:00,69.0,60.4,29.78,SW,234,0.0,0.0,74,0.00,CLR,,0.00,0.0,WeatherDisplay:10.37,2013-07-21 07:47:00,
2013-07-21 00:52:00,68.8,60.2,29.78,SW,234,0.0,0.0,74,0.00,CLR,,0.00,0.0,WeatherDisplay:10.37,2013-07-21 07:52:00,
2013-07-21 00:57:00,68.8,60.2,29.78,SW,234,0.0,0.0,74,0.00,CLR,,0.00,0.0,WeatherDisplay:10.37,2013-07-21 07:57:00,
2013-07-21 01:02:00,68.6,60.0,29.78,SW,234,0.0,0.0,74,0.00,CLR,,0.00,0.0,WeatherDisplay:10.37,2013-07-21 08:02:00,
2013-07-21 01:07:00,68.4,59.8,29.78,SW,234,0.2,1.1,74,0.00,CLR,,0.00,0.0,WeatherDisplay:10.37,2013-07-21 08:07:00,
2013-07-21 01:12:00,68.2,60.0,29.78,SW,234,0.0,0.0,75,0.00,CLR,,0.00,0.0,WeatherDisplay:10.37,2013-07-21 08:12:00,
2013-07-21 01:17:00,68.1,60.2,29.78,SW,234,0.4,1.1,76,0.00,CLR,,0.00,0.0,WeatherDisplay:10.37,2013-07-21 08:17:00,
2013-07-21 01:22:00,68.0,60.2,29.78,WSW,237,0.2,1.1,76,0.00,CLR,,0.00,0.0,WeatherDisplay:10.37,2013-07-21 08:22:00,
2013-07-21 01:27:00,67.9,60.1,29.78,WNW,288,0.5,2.0,76,0.00,CLR,,0.00,0.0,WeatherDisplay:10.37,2013-07-21 08:27:00,
2013-07-21 01:32:00,67.9,60.4,29.78,WNW,288,0.5,2.3,77,0.00,CLR,,0.00,0.0,WeatherDisplay:10.37,2013-07-21 08:32:00,
2013-07-21 01:37:00,67.8,60.3,29.78,WNW,288,0.0,0.0,77,0.00,CLR,,0.00,0.0,WeatherDisplay:10.37,2013-07-21 08:37:00,
2013-07-21 01:42:00,67.7,60.2,29.78,WNW,288,0.0,0.0,77,0.00,CLR,,0.00,0.0,WeatherDisplay:10.37,2013-07-21 08:42:00,
2013-07-21 01:47:00,67.6,60.1,29.78,WNW,288,0.4,2.3,77,0.00,CLR,,0.00,0.0,WeatherDisplay:10.37,2013-07-21 08:47:00,
2013-07-21 01:52:00,67.6,60.1,29.78,WNW,288,0.0,0.0,77,0.00,CLR,,0.00,0.0,WeatherDisplay:10.37,2013-07-21 08:52:00,
2013-07-21 01:57:00,67.6,60.5,29.78,WNW,288,0.0,0.0,78,0.00,CLR,,0.00,0.0,WeatherDisplay:10.37,2013-07-21 08:57:00,
2013-07-21 02:02:00,67.5,60.4,29.78,WNW,288,0.0,0.0,78,0.00,CLR,,0.00,0.0,WeatherDisplay:10.37,2013-07-21 09:02:00,
2013-07-21 02:07:00,67.4,60.3,29.78,WNW,288,0.0,0.0,78,0.00,CLR,,0.00,0.0,WeatherDisplay:10.37,2013-07-21 09:07:00,
2013-07-21 02:12:00,67.4,60.3,29.77,WNW,288,0.0,0.0,78,0.00,CLR,,0.00,0.0,WeatherDisplay:10.37,2013-07-21 09:12:00,
2013-07-21 02:17:00,67.4,60.3,29.77,WNW,288,0.0,0.0,78,0.00,CLR,,0.00,0.0,WeatherDisplay:10.37,2013-07-21 09:17:00,
2013-07-21 02:22:00,67.4,60.3,29.77,WNW,288,0.0,1.1,78,0.00,CLR,,0.00,0.0,WeatherDisplay:10.37,2013-07-21 09:22:00,
2013-07-21 02:27:00,67.4,60.3,29.77,WNW,288,0.0,0.0,78,0.00,CLR,,0.00,0.0,WeatherDisplay:10.37,2013-07-21 09:27:00,
2013-07-21 02:32:00,67.5,60.8,29.77,WNW,288,0.0,0.0,79,0.00,CLR,,0.00,0.0,WeatherDisplay:10.37,2013-07-21 09:32:00,
2013-07-21 02:37:00,67.5,60.8,29.76,WNW,288,0.0,0.0,79,0.00,CLR,,0.00,0.0,WeatherDisplay:10.37,2013-07-21 09:37:00,
2013-07-21 02:42:00,67.5,60.8,29.77,WNW,288,0.0,0.0,79,0.00,CLR,,0.00,0.0,WeatherDisplay:10.37,2013-07-21 09:42:00,
2013-07-21 02:47:00,67.6,60.9,29.77,WNW,288,0.0,0.0,79,0.00,CLR,,0.00,0.0,WeatherDisplay:10.37,2013-07-21 09:47:00,
2013-07-21 02:52:00,67.6,60.9,29.77,WNW,288,0.0,0.0,79,0.00,CLR,,0.00,0.0,WeatherDisplay:10.37,2013-07-21 09:52:00,
2013-07-21 02:57:00,67.7,61.0,29.77,WNW,288,0.0,0.0,79,0.00,CLR,,0.00,0.0,WeatherDisplay:10.37,2013-07-21 09:57:00,
2013-07-21 03:02:00,67.7,61.0,29.77,WNW,288,0.0,0.0,79,0.00,CLR,,0.00,0.0,WeatherDisplay:10.37,2013-07-21 10:02:00,
2013-07-21 03:07:00,67.8,61.4,29.77,WNW,288,0.0,0.0,80,0.00,CLR,,0.00,0.0,WeatherDisplay:10.37,2013-07-21 10:07:00,
2013-07-21 03:12:00,67.9,61.1,29.77,WNW,288,0.0,0.0,79,0.00,CLR,,0.00,0.0,WeatherDisplay:10.37,2013-07-21 10:12:00,
2013-07-21 03:17:00,67.8,61.0,29.76,WNW,288,0.0,0.0,79,0.00,CLR,,0.00,0.0,WeatherDisplay:10.37,2013-07-21 10:17:00,
2013-07-21 03:22:00,67.9,61.1,29.77,WNW,288,0.0,0.0,79,0.00,CLR,,0.00,0.0,WeatherDisplay:10.37,2013-07-21 10:22:00,
2013-07-21 03:27:00,67.9,61.1,29.77,WNW,288,0.1,0.0,79,0.00,CLR,,0.00,0.0,WeatherDisplay:10.37,2013-07-21 10:27:00,
2013-07-21 03:32:00,67.9,61.1,29.76,WNW,288,0.0,0.0,79,0.00,CLR,,0.00,0.0,WeatherDisplay:10.37,2013-07-21 10:32:00,
2013-07-21 03:37:00,67.9,60.4,29.77,WNW,288,0.1,1.1,77,0.00,CLR,,0.00,0.0,WeatherDisplay:10.37,2013-07-21 10:37:00,
2013-07-21 03:42:00,68.0,60.5,29.77,WNW,288,0.0,0.0,77,0.00,CLR,,0.00,0.0,WeatherDisplay:10.37,2013-07-21 10:42:00,
2013-07-21 03:47:00,68.0,60.5,29.76,SW,224,1.0,2.0,77,0.00,CLR,,0.00,0.0,WeatherDisplay:10.37,2013-07-21 10:47:00,
2013-07-21 03:52:00,68.1,60.6,29.76,WSW,245,1.2,2.3,77,0.00,CLR,,0.00,0.0,WeatherDisplay:10.37,2013-07-21 10:52:00,
2013-07-21 03:57:00,68.4,60.9,29.76,West,267,2.6,3.5,77,0.00,CLR,,0.00,0.0,WeatherDisplay:10.37,2013-07-21 10:57:00,
2013-07-21 04:02:00,68.6,61.1,29.75,West,262,3.3,5.0,77,0.00,CLR,,0.00,0.0,WeatherDisplay:10.37,2013-07-21 11:02:00,
2013-07-21 04:07:00,68.9,61.8,29.75,SW,219,1.2,2.3,78,0.00,CLR,,0.00,0.0,WeatherDisplay:10.37,2013-07-21 11:07:00,
2013-07-21 04:12:00,69.1,61.6,29.75,SW,218,1.0,3.5,77,0.00,CLR,,0.00,0.0,WeatherDisplay:10.37,2013-07-21 11:12:00,
2013-07-21 04:17:00,69.3,60.7,29.74,South,190,3.9,6.0,74,0.00,CLR,,0.00,0.0,WeatherDisplay:10.37,2013-07-21 11:17:00,
2013-07-21 04:22:00,69.2,60.9,29.74,WSW,244,3.8,4.6,75,0.00,CLR,,0.00,0.0,WeatherDisplay:10.37,2013-07-21 11:22:00,
2013-07-21 04:27:00,69.0,60.7,29.74,West,262,1.9,5.8,75,0.00,CLR,,0.00,0.0,WeatherDisplay:10.37,2013-07-21 11:27:00,
2013-07-21 04:32:00,68.9,61.0,29.73,East,82,1.6,0.0,76,0.00,CLR,,0.00,0.0,WeatherDisplay:10.37,2013-07-21 11:32:00,
2013-07-21 04:37:00,69.0,61.1,29.73,NE,41,0.2,0.0,76,0.00,CLR,,0.00,0.0,WeatherDisplay:10.37,2013-07-21 11:37:00,
2013-07-21 04:42:00,69.2,61.7,29.73,WSW,247,1.7,3.5,77,0.00,CLR,,0.00,0.0,WeatherDisplay:10.37,2013-07-21 11:42:00,
2013-07-21 04:47:00,69.4,61.5,29.73,WNW,299,1.0,3.5,76,0.00,CLR,,0.00,0.0,WeatherDisplay:10.37,2013-07-21 11:47:00,
2013-07-21 04:52:00,69.4,61.1,29.72,WSW,238,2.7,3.5,75,0.00,CLR,,0.00,0.0,WeatherDisplay:10.37,2013-07-21 11:52:00,
2013-07-21 04:57:00,69.4,61.5,29.72,West,263,1.1,3.5,76,0.00,CLR,,0.00,0.0,WeatherDisplay:10.37,2013-07-21 11:57:00,
2013-07-21 05:02:00,69.4,61.9,29.72,SW,216,0.2,3.5,77,0.00,CLR,,0.00,0.0,WeatherDisplay:10.37,2013-07-21 12:02:00,
2013-07-21 05:07:00,69.5,61.6,29.73,West,279,0.9,2.3,76,0.00,CLR,,0.00,0.0,WeatherDisplay:10.37,2013-07-21 12:07:00,
2013-07-21 05:12:00,69.7,62.2,29.72,WSW,255,0.7,1.1,77,0.00,CLR,,0.00,0.0,WeatherDisplay:10.37,2013-07-21 12:12:00,
2013-07-21 05:17:00,69.9,62.0,29.72,WSW,254,0.0,3.5,76,0.00,CLR,,0.00,0.0,WeatherDisplay:10.37,2013-07-21 12:17:00,
2013-07-21 05:22:00,69.9,62.4,29.72,WSW,248,0.4,1.1,77,0.00,CLR,,0.00,0.0,WeatherDisplay:10.37,2013-07-21 12:22:00,
2013-07-21 05:27:00,69.9,62.4,29.72,WSW,248,0.8,1.1,77,0.00,CLR,,0.00,0.0,WeatherDisplay:10.37,2013-07-21 12:27:00,
2013-07-21 05:32:00,69.9,62.4,29.72,West,267,2.0,3.5,77,0.00,CLR,,0.00,0.0,WeatherDisplay:10.37,2013-07-21 12:32:00,
2013-07-21 05:38:00,69.9,62.0,29.72,WSW,244,0.6,2.3,76,0.00,CLR,,0.00,0.0,WeatherDisplay:10.37,2013-07-21 12:38:00,
2013-07-21 05:43:00,69.9,62.0,29.72,SW,218,2.3,4.6,76,0.00,CLR,,0.00,0.0,WeatherDisplay:10.37,2013-07-21 12:43:00,
2013-07-21 05:48:00,69.6,61.7,29.73,NNW,327,0.5,1.1,76,0.00,CLR,,0.00,0.0,WeatherDisplay:10.37,2013-07-21 12:48:00,
2013-07-21 05:53:00,69.5,62.3,29.74,ENE,58,1.8,3.5,78,0.00,CLR,,0.00,0.0,WeatherDisplay:10.37,2013-07-21 12:53:00,
2013-07-21 05:58:00,69.7,62.5,29.73,ENE,72,4.1,6.9,78,0.00,CLR,,0.00,0.0,WeatherDisplay:10.37,2013-07-21 12:58:00,
2013-07-21 06:03:00,70.2,63.0,29.73,ENE,61,2.4,4.6,78,0.00,CLR,,0.00,0.0,WeatherDisplay:10.37,2013-07-21 13:03:00,
2013-07-21 06:08:00,70.5,62.9,29.73,East,81,0.3,2.3,77,0.00,CLR,,0.00,0.0,WeatherDisplay:10.37,2013-07-21 13:08:00,
2013-07-21 06:13:00,70.6,62.7,29.73,ENE,65,0.0,0.0,76,0.00,CLR,,0.00,0.0,WeatherDisplay:10.37,2013-07-21 13:13:00,
2013-07-21 06:18:00,70.5,62.9,29.73,NW,306,0.8,2.3,77,0.00,CLR,,0.00,5.0,WeatherDisplay:10.37,2013-07-21 13:18:00,
2013-07-21 06:23:00,70.3,63.1,29.73,SSW,206,1.5,2.3,78,0.00,BKN,,0.00,7.0,WeatherDisplay:10.37,2013-07-21 13:23:00,
2013-07-21 06:28:00,70.2,63.0,29.73,SSW,206,0.2,1.1,78,0.00,BKN,,0.00,9.0,WeatherDisplay:10.37,2013-07-21 13:28:00,
2013-07-21 06:33:00,70.2,62.6,29.74,SSW,206,0.1,1.1,77,0.00,BKN,,0.00,11.0,WeatherDisplay:10.37,2013-07-21 13:33:00,
2013-07-21 06:38:00,70.4,63.2,29.73,West,267,2.7,3.5,78,0.00,BKN,,0.00,14.0,WeatherDisplay:10.37,2013-07-21 13:38:00,
2013-07-21 06:43:00,70.6,63.0,29.74,South,187,0.5,3.0,77,0.00,BKN,,0.00,19.0,WeatherDisplay:10.37,2013-07-21 13:43:00,
2013-07-21 06:48:00,70.9,63.3,29.74,SW,233,1.5,3.5,77,0.00,BKN,,0.00,25.0,WeatherDisplay:10.37,2013-07-21 13:48:00,
2013-07-21 06:53:00,71.2,63.2,29.74,SW,216,1.3,3.5,76,0.00,BKN,,0.00,39.0,WeatherDisplay:10.37,2013-07-21 13:53:00,
2013-07-21 06:58:00,71.6,63.3,29.74,WSW,249,2.4,3.5,75,0.00,SCT,,0.00,56.0,WeatherDisplay:10.37,2013-07-21 13:58:00,
2013-07-21 07:03:00,72.1,63.7,29.74,WSW,241,0.1,1.1,75,0.00,CLR,,0.00,88.0,WeatherDisplay:10.37,2013-07-21 14:03:00,
2013-07-21 07:08:00,72.8,66.6,29.74,WSW,241,0.0,1.1,81,0.00,CLR,,0.00,142.0,WeatherDisplay:10.37,2013-07-21 14:08:00,
2013-07-21 07:13:00,73.1,65.8,29.74,SW,221,1.4,3.5,78,0.00,CLR,,0.00,139.0,WeatherDisplay:10.37,2013-07-21 14:13:00,
2013-07-21 07:18:00,73.3,64.1,29.74,SSW,194,1.6,3.5,73,0.00,CLR,,0.00,167.0,WeatherDisplay:10.37,2013-07-21 14:18:00,
2013-07-21 07:23:00,73.6,64.0,29.74,SSW,194,0.0,0.0,72,0.00,CLR,,0.00,200.0,WeatherDisplay:10.37,2013-07-21 14:23:00,
2013-07-21 07:28:00,74.2,65.4,29.75,NNE,24,0.1,1.1,74,0.00,CLR,,0.00,137.0,WeatherDisplay:10.37,2013-07-21 14:28:00,
2013-07-21 07:33:00,74.6,65.0,29.75,NNE,24,0.3,1.1,72,0.00,CLR,,0.00,146.0,WeatherDisplay:10.37,2013-07-21 14:33:00,
2013-07-21 07:38:00,75.0,65.8,29.75,NE,48,0.1,1.1,73,0.00,CLR,,0.00,260.0,WeatherDisplay:10.37,2013-07-21 14:38:00,
2013-07-21 07:43:00,75.7,65.2,29.75,NE,38,1.5,3.5,70,0.00,CLR,,0.00,260.0,WeatherDisplay:10.37,2013-07-21 14:43:00,
2013-07-21 07:48:00,76.2,65.7,29.76,NE,43,0.8,3.5,70,0.00,CLR,,0.00,258.0,WeatherDisplay:10.37,2013-07-21 14:48:00,
2013-07-21 07:53:00,76.7,65.8,29.76,NNE,28,2.1,3.5,69,0.00,CLR,,0.00,308.0,WeatherDisplay:10.37,2013-07-21 14:53:00,
2013-07-21 07:58:00,76.7,64.9,29.77,NE,50,1.9,3.5,67,0.00,CLR,,0.00,162.0,WeatherDisplay:10.37,2013-07-21 14:58:00,
2013-07-21 08:03:00,76.3,65.4,29.77,ENE,70,2.4,5.0,69,0.00,CLR,,0.00,155.0,WeatherDisplay:10.37,2013-07-21 15:03:00,
2013-07-21 08:08:00,75.8,65.3,29.77,ENE,74,0.6,3.5,70,0.00,CLR,,0.00,151.0,WeatherDisplay:10.37,2013-07-21 15:08:00,
2013-07-21 08:13:00,75.5,65.0,29.77,ENE,58,0.7,2.3,70,0.00,CLR,,0.00,160.0,WeatherDisplay:10.37,2013-07-21 15:13:00,
2013-07-21 08:18:00,75.5,65.0,29.77,ENE,58,0.0,0.0,70,0.00,CLR,,0.00,167.0,WeatherDisplay:10.37,2013-07-21 15:18:00,
2013-07-21 08:23:00,75.6,64.3,29.78,South,189,0.8,2.0,68,0.00,CLR,,0.00,169.0,WeatherDisplay:10.37,2013-07-21 15:23:00,
2013-07-21 08:28:00,75.5,64.2,29.78,WSW,257,1.4,3.5,68,0.00,CLR,,0.00,174.0,WeatherDisplay:10.37,2013-07-21 15:28:00,
2013-07-21 08:33:00,75.0,63.3,29.78,West,263,1.6,6.9,67,0.00,CLR,,0.00,181.0,WeatherDisplay:10.37,2013-07-21 15:33:00,
2013-07-21 08:38:00,74.8,63.5,29.78,West,272,3.4,3.5,68,0.00,CLR,,0.00,188.0,WeatherDisplay:10.37,2013-07-21 15:38:00,
2013-07-21 08:43:00,74.5,63.7,29.78,SSW,205,3.7,5.8,69,0.00,CLR,,0.00,211.0,WeatherDisplay:10.37,2013-07-21 15:43:00,
2013-07-21 08:48:00,74.5,63.2,29.78,West,261,1.4,3.5,68,0.00,CLR,,0.00,237.0,WeatherDisplay:10.37,2013-07-21 15:48:00,
2013-07-21 08:53:00,74.8,63.5,29.79,SW,222,2.2,3.5,68,0.00,CLR,,0.00,248.0,WeatherDisplay:10.37,2013-07-21 15:53:00,
2013-07-21 08:58:00,74.9,63.6,29.79,SW,236,1.9,3.5,68,0.00,CLR,,0.00,250.0,WeatherDisplay:10.37,2013-07-21 15:58:00,
2013-07-21 09:03:00,75.2,63.9,29.79,West,268,0.4,2.3,68,0.00,CLR,,0.00,258.0,WeatherDisplay:10.37,2013-07-21 16:03:00,
2013-07-21 09:08:00,75.5,63.8,29.79,SW,220,0.7,2.3,67,0.00,CLR,,0.00,243.0,WeatherDisplay:10.37,2013-07-21 16:08:00,
2013-07-21 09:13:00,75.9,64.2,29.79,SW,234,3.2,4.6,67,0.00,CLR,,0.00,213.0,WeatherDisplay:10.37,2013-07-21 16:13:00,
2013-07-21 09:18:00,75.9,63.7,29.79,SW,229,3.5,4.6,66,0.00,CLR,,0.00,190.0,WeatherDisplay:10.37,2013-07-21 16:18:00,
2013-07-21 09:23:00,75.7,64.0,29.79,SW,217,3.9,5.8,67,0.00,CLR,,0.00,172.0,WeatherDisplay:10.37,2013-07-21 16:23:00,
2013-07-21 09:28:00,75.6,63.4,29.79,West,264,3.6,5.0,66,0.00,CLR,,0.00,171.0,WeatherDisplay:10.37,2013-07-21 16:28:00,
2013-07-21 09:33:00,75.5,63.3,29.79,WSW,256,2.7,6.9,66,0.00,CLR,,0.00,171.0,WeatherDisplay:10.37,2013-07-21 16:33:00,
2013-07-21 09:38:00,75.5,63.8,29.79,WSW,248,3.2,4.6,67,0.00,CLR,,0.00,181.0,WeatherDisplay:10.37,2013-07-21 16:38:00,
2013-07-21 09:43:00,75.5,63.3,29.79,WSW,250,3.6,8.1,66,0.00,CLR,,0.00,192.0,WeatherDisplay:10.37,2013-07-21 16:43:00,
2013-07-21 09:48:00,75.6,63.9,29.79,West,267,1.5,5.8,67,0.00,CLR,,0.00,195.0,WeatherDisplay:10.37,2013-07-21 16:48:00,
2013-07-21 09:53:00,75.7,63.1,29.79,SW,220,3.0,6.9,65,0.00,CLR,,0.00,204.0,WeatherDisplay:10.37,2013-07-21 16:53:00,
2013-07-21 09:58:00,75.8,63.6,29.79,WNW,296,2.8,5.0,66,0.00,CLR,,0.00,218.0,WeatherDisplay:10.37,2013-07-21 16:58:00,
2013-07-21 10:03:00,75.7,63.1,29.79,WSW,253,2.6,4.6,65,0.00,CLR,,0.00,218.0,WeatherDisplay:10.37,2013-07-21 17:03:00,
2013-07-21 10:08:00,75.5,63.8,29.79,WNW,286,3.7,4.6,67,0.00,CLR,,0.00,214.0,WeatherDisplay:10.37,2013-07-21 17:08:00,
2013-07-21 10:13:00,75.4,63.7,29.80,West,279,3.3,5.8,67,0.00,CLR,,0.00,197.0,WeatherDisplay:10.37,2013-07-21 17:13:00,
2013-07-21 10:18:00,75.5,63.8,29.80,SW,229,5.2,6.9,67,0.00,CLR,,0.00,190.0,WeatherDisplay:10.37,2013-07-21 17:18:00,
2013-07-21 10:23:00,75.7,64.0,29.80,West,270,4.9,5.0,67,0.00,CLR,,0.00,190.0,WeatherDisplay:10.37,2013-07-21 17:23:00,
2013-07-21 10:28:00,75.9,64.6,29.80,SW,232,4.9,6.9,68,0.00,CLR,,0.00,186.0,WeatherDisplay:10.37,2013-07-21 17:28:00,
2013-07-21 10:33:00,75.9,63.3,29.80,WSW,252,4.1,5.8,65,0.00,CLR,,0.00,197.0,WeatherDisplay:10.37,2013-07-21 17:33:00,
2013-07-21 10:38:00,76.0,64.2,29.80,SW,229,5.1,6.9,67,0.00,CLR,,0.00,220.0,WeatherDisplay:10.37,2013-07-21 17:38:00,
2013-07-21 10:43:00,76.3,64.1,29.80,SW,223,2.2,5.8,66,0.00,CLR,,0.00,214.0,WeatherDisplay:10.37,2013-07-21 17:43:00,
2013-07-21 10:48:00,76.6,64.4,29.80,WSW,240,1.7,3.5,66,0.00,CLR,,0.00,193.0,WeatherDisplay:10.37,2013-07-21 17:48:00,
2013-07-21 10:53:00,76.8,64.1,29.80,WSW,254,1.6,4.0,65,0.00,CLR,,0.00,207.0,WeatherDisplay:10.37,2013-07-21 17:53:00,
2013-07-21 10:59:00,77.0,63.9,29.80,WNW,290,2.6,3.5,64,0.00,CLR,,0.00,250.0,WeatherDisplay:10.37,2013-07-21 17:59:00,
2013-07-21 11:04:00,77.1,64.9,29.80,WSW,242,2.7,5.0,66,0.00,CLR,,0.00,267.0,WeatherDisplay:10.37,2013-07-21 18:04:00,
2013-07-21 11:09:00,77.5,64.8,29.80,NW,319,2.2,3.5,65,0.00,CLR,,0.00,267.0,WeatherDisplay:10.37,2013-07-21 18:09:00,
2013-07-21 11:14:00,77.7,65.0,29.80,SSW,213,3.6,6.9,65,0.00,CLR,,0.00,258.0,WeatherDisplay:10.37,2013-07-21 18:14:00,
2013-07-21 11:19:00,77.9,64.3,29.80,West,265,2.9,4.6,63,0.00,CLR,,0.00,257.0,WeatherDisplay:10.37,2013-07-21 18:19:00,
2013-07-21 11:24:00,78.0,64.8,29.80,WSW,246,3.8,6.9,64,0.00,CLR,,0.00,246.0,WeatherDisplay:10.37,2013-07-21 18:24:00,
2013-07-21 11:29:00,78.1,64.5,29.80,WNW,286,3.2,4.6,63,0.00,CLR,,0.00,234.0,WeatherDisplay:10.37,2013-07-21 18:29:00,
2013-07-21 11:34:00,78.3,64.7,29.80,SW,234,2.3,3.5,63,0.00,CLR,,0.00,223.0,WeatherDisplay:10.37,2013-07-21 18:34:00,
2013-07-21 11:39:00,78.6,64.9,29.80,WSW,250,2.9,3.5,63,0.00,CLR,,0.00,211.0,WeatherDisplay:10.37,2013-07-21 18:39:00,
2013-07-21 11:44:00,78.9,65.7,29.80,SW,218,3.3,4.6,64,0.00,CLR,,0.00,230.0,WeatherDisplay:10.37,2013-07-21 18:44:00,
2013-07-21 11:49:00,79.2,65.5,29.80,WNW,283,2.9,4.6,63,0.00,CLR,,0.00,276.0,WeatherDisplay:10.37,2013-07-21 18:49:00,
2013-07-21 11:54:00,79.6,65.9,29.80,South,186,2.9,5.8,63,0.00,CLR,,0.00,323.0,WeatherDisplay:10.37,2013-07-21 18:54:00,
2013-07-21 11:59:00,80.0,65.8,29.80,SSW,208,1.9,3.5,62,0.00,CLR,,0.00,357.0,WeatherDisplay:10.37,2013-07-21 18:59:00,
2013-07-21 12:04:00,80.3,66.1,29.80,WSW,239,3.7,5.8,62,0.00,CLR,,0.00,380.0,WeatherDisplay:10.37,2013-07-21 19:04:00,
2013-07-21 12:09:00,80.6,65.9,29.80,WSW,242,2.9,4.6,61,0.00,CLR,,0.00,404.0,WeatherDisplay:10.37,2013-07-21 19:09:00,
2013-07-21 12:14:00,80.8,65.6,29.80,SW,228,2.3,4.6,60,0.00,CLR,,0.00,483.0,WeatherDisplay:10.37,2013-07-21 19:14:00,
2013-07-21 12:19:00,80.9,65.7,29.79,West,262,2.3,3.5,60,0.00,CLR,,0.00,450.0,WeatherDisplay:10.37,2013-07-21 19:19:00,
2013-07-21 12:24:00,81.3,66.1,29.79,West,259,2.2,3.5,60,0.00,CLR,,0.00,446.0,WeatherDisplay:10.37,2013-07-21 19:24:00,
2013-07-21 12:29:00,81.8,65.6,29.79,WNW,300,1.4,3.5,58,0.00,CLR,,0.00,492.0,WeatherDisplay:10.37,2013-07-21 19:29:00,
2013-07-21 12:34:00,82.2,66.4,29.79,West,260,2.6,3.5,59,0.00,CLR,,0.00,515.0,WeatherDisplay:10.37,2013-07-21 19:34:00,
2013-07-21 12:39:00,82.6,67.3,29.79,WSW,245,4.1,4.6,60,0.00,CLR,,0.00,527.0,WeatherDisplay:10.37,2013-07-21 19:39:00,
2013-07-21 12:44:00,83.1,67.3,29.79,SW,214,2.2,3.5,59,0.00,CLR,,0.00,545.0,WeatherDisplay:10.37,2013-07-21 19:44:00,
2013-07-21 12:49:00,83.9,67.0,29.79,SW,221,2.5,3.5,57,0.00,CLR,,0.00,541.0,WeatherDisplay:10.37,2013-07-21 19:49:00,
2013-07-21 12:54:00,84.3,66.4,29.79,WSW,250,2.5,3.5,55,0.00,CLR,,0.00,575.0,WeatherDisplay:10.37,2013-07-21 19:54:00,
2013-07-21 12:59:00,84.5,68.1,29.79,SW,225,2.4,3.5,58,0.00,CLR,,0.00,612.0,WeatherDisplay:10.37,2013-07-21 19:59:00,
2013-07-21 13:04:00,85.0,66.0,29.79,West,276,2.2,4.6,53,0.00,CLR,,0.00,577.0,WeatherDisplay:10.37,2013-07-21 20:04:00,
2013-07-21 13:09:00,85.6,68.1,29.79,WSW,249,3.7,5.8,56,0.00,CLR,,0.00,656.0,WeatherDisplay:10.37,2013-07-21 20:09:00,
2013-07-21 13:14:00,86.2,65.4,29.79,SW,222,4.4,6.9,50,0.00,CLR,,0.00,684.0,WeatherDisplay:10.37,2013-07-21 20:14:00,
2013-07-21 13:19:00,86.7,67.5,29.79,SW,220,3.8,6.9,53,0.00,CLR,,0.00,853.0,WeatherDisplay:10.37,2013-07-21 20:19:00,
2013-07-21 13:24:00,87.6,67.8,29.79,WNW,285,2.6,3.5,52,0.00,CLR,,0.00,816.0,WeatherDisplay:10.37,2013-07-21 20:24:00,
2013-07-21 13:29:00,88.4,68.0,29.79,South,177,4.6,5.8,51,0.00,CLR,,0.00,596.0,WeatherDisplay:10.37,2013-07-21 20:29:00,
2013-07-21 13:34:00,88.4,67.4,29.79,WSW,258,1.2,3.5,50,0.00,CLR,,0.00,666.0,WeatherDisplay:10.37,2013-07-21 20:34:00,
2013-07-21 13:39:00,88.4,65.6,29.78,West,273,4.2,6.9,47,0.00,CLR,,0.00,726.0,WeatherDisplay:10.37,2013-07-21 20:39:00,
2013-07-21 13:44:00,88.1,67.1,29.78,WSW,257,1.9,5.8,50,0.00,CLR,,0.00,1049.0,WeatherDisplay:10.37,2013-07-21 20:44:00,
2013-07-21 13:49:00,88.9,67.3,29.79,WSW,251,5.7,8.1,49,0.00,CLR,,0.00,744.0,WeatherDisplay:10.37,2013-07-21 20:49:00,
2013-07-21 13:54:00,89.1,67.5,29.79,WNW,288,6.4,10.4,49,0.00,CLR,,0.00,837.0,WeatherDisplay:10.37,2013-07-21 20:54:00,
2013-07-21 13:59:00,88.9,66.1,29.79,South,186,7.7,11.5,47,0.00,CLR,,0.00,480.0,WeatherDisplay:10.37,2013-07-21 20:59:00,
2013-07-21 14:04:00,87.6,64.9,29.79,SSW,213,8.6,11.5,47,0.00,CLR,,0.00,334.0,WeatherDisplay:10.37,2013-07-21 21:04:00,
2013-07-21 14:09:00,86.5,65.1,29.79,SW,235,8.9,12.7,49,0.00,CLR,,0.00,295.0,WeatherDisplay:10.37,2013-07-21 21:09:00,
2013-07-21 14:14:00,85.2,63.9,29.79,South,190,10.4,12.7,49,0.00,CLR,,0.00,274.0,WeatherDisplay:10.37,2013-07-21 21:14:00,
2013-07-21 14:19:00,84.2,63.5,29.79,SSW,203,9.5,13.8,50,0.00,CLR,,0.00,283.0,WeatherDisplay:10.37,2013-07-21 21:19:00,
2013-07-21 14:24:00,83.3,63.3,29.79,SW,231,9.3,13.8,51,0.00,CLR,,0.00,394.0,WeatherDisplay:10.37,2013-07-21 21:24:00,
2013-07-21 14:29:00,82.8,62.8,29.79,South,172,9.4,11.5,51,0.00,CLR,,0.00,332.0,WeatherDisplay:10.37,2013-07-21 21:29:00,
2013-07-21 14:34:00,82.1,62.7,29.79,SSW,202,9.4,11.5,52,0.00,CLR,,0.00,285.0,WeatherDisplay:10.37,2013-07-21 21:34:00,
2013-07-21 14:39:00,81.2,61.9,29.80,West,259,9.3,15.0,52,0.00,CLR,,0.00,227.0,WeatherDisplay:10.37,2013-07-21 21:39:00,
2013-07-21 14:44:00,80.3,61.6,29.80,West,263,8.1,18.4,53,0.00,CLR,,0.00,195.0,WeatherDisplay:10.37,2013-07-21 21:44:00,
2013-07-21 14:49:00,79.5,61.9,29.80,SW,229,10.7,17.3,55,0.00,CLR,,0.00,171.0,WeatherDisplay:10.37,2013-07-21 21:49:00,
2013-07-21 14:54:00,78.8,61.8,29.81,SSW,200,9.1,11.5,56,0.00,CLR,,0.00,148.0,WeatherDisplay:10.37,2013-07-21 21:54:00,
2013-07-21 14:59:00,78.3,60.8,29.81,SSW,202,6.7,11.5,55,0.00,CLR,,0.00,127.0,WeatherDisplay:10.37,2013-07-21 21:59:00,
2013-07-21 15:04:00,77.8,60.8,29.81,WSW,244,8.2,11.5,56,0.00,CLR,,0.00,98.0,WeatherDisplay:10.37,2013-07-21 22:04:00,
2013-07-21 15:09:00,77.3,60.4,29.81,West,261,8.9,13.8,56,0.00,CLR,,0.00,86.0,WeatherDisplay:10.37,2013-07-21 22:09:00,
2013-07-21 15:14:00,76.6,60.2,29.82,SW,214,6.8,11.0,57,0.00,FEW,,0.00,70.0,WeatherDisplay:10.37,2013-07-21 22:14:00,
2013-07-21 15:19:00,76.2,60.3,29.82,West,267,7.9,11.5,58,0.00,SCT,,0.00,58.0,WeatherDisplay:10.37,2013-07-21 22:19:00,
2013-07-21 15:24:00,75.9,60.1,29.82,West,275,7.4,11.5,58,0.00,SCT,,0.00,56.0,WeatherDisplay:10.37,2013-07-21 22:24:00,
2013-07-21 15:29:00,75.6,60.3,29.82,SSW,209,6.0,11.5,59,0.00,SCT,,0.00,56.0,WeatherDisplay:10.37,2013-07-21 22:29:00,
2013-07-21 15:35:00,75.3,60.9,29.82,SW,215,7.3,9.2,61,0.00,SCT,,0.00,56.0,WeatherDisplay:10.37,2013-07-21 22:35:00,
2013-07-21 15:40:00,75.1,60.7,29.82,SW,232,4.1,6.9,61,0.00,SCT,,0.00,56.0,WeatherDisplay:10.37,2013-07-21 22:40:00,
2013-07-21 15:45:00,74.9,60.5,29.82,West,280,4.4,8.1,61,0.00,SCT,,0.00,56.0,WeatherDisplay:10.37,2013-07-21 22:45:00,
2013-07-21 15:50:00,74.7,60.8,29.82,SSW,199,5.2,9.2,62,0.00,SCT,,0.00,56.0,WeatherDisplay:10.37,2013-07-21 22:50:00,
2013-07-21 15:55:00,74.4,61.0,29.82,SW,230,5.0,12.0,63,0.00,SCT,,0.00,60.0,WeatherDisplay:10.37,2013-07-21 22:55:00,
2013-07-21 16:00:00,74.1,61.6,29.82,SSW,194,4.1,11.5,65,0.00,SCT,,0.00,65.0,WeatherDisplay:10.37,2013-07-21 23:00:00,
2013-07-21 16:05:00,73.8,61.7,29.82,WSW,243,5.0,8.0,66,0.00,FEW,,0.00,70.0,WeatherDisplay:10.37,2013-07-21 23:05:00,
2013-07-21 16:10:00,73.5,61.9,29.83,SW,223,4.5,8.1,67,0.00,FEW,,0.00,76.0,WeatherDisplay:10.37,2013-07-21 23:10:00,
2013-07-21 16:15:00,73.3,62.5,29.82,SSW,200,5.7,8.1,69,0.00,CLR,,0.00,79.0,WeatherDisplay:10.37,2013-07-21 23:15:00,
2013-07-21 16:20:00,73.0,62.6,29.83,SSW,198,3.2,6.0,70,0.00,CLR,,0.00,79.0,WeatherDisplay:10.37,2013-07-21 23:20:00,
2013-07-21 16:25:00,72.8,62.4,29.83,WSW,250,2.0,4.0,70,0.00,FEW,,0.00,74.0,WeatherDisplay:10.37,2013-07-21 23:25:00,
2013-07-21 16:30:00,72.8,62.4,29.83,WSW,239,3.0,6.0,70,0.00,FEW,,0.00,72.0,WeatherDisplay:10.37,2013-07-21 23:30:00,
2013-07-21 16:35:00,72.8,62.0,29.83,WSW,242,1.6,3.5,69,0.00,FEW,,0.00,74.0,WeatherDisplay:10.37,2013-07-21 23:35:00,
2013-07-21 16:40:00,72.8,62.0,29.83,SW,218,3.8,5.8,69,0.00,CLR,,0.00,77.0,WeatherDisplay:10.37,2013-07-21 23:40:00,
2013-07-21 16:45:00,72.8,62.4,29.82,SSW,196,3.0,6.0,70,0.00,CLR,,0.00,79.0,WeatherDisplay:10.37,2013-07-21 23:45:00,
2013-07-21 16:50:00,72.9,62.5,29.82,SSW,194,2.5,3.5,70,0.00,CLR,,0.00,81.0,WeatherDisplay:10.37,2013-07-21 23:50:00,
2013-07-21 16:55:00,72.9,62.1,29.82,SW,219,3.6,6.9,69,0.00,CLR,,0.00,83.0,WeatherDisplay:10.37,2013-07-21 23:55:00,
2013-07-21 17:00:00,72.8,62.0,29.81,SSW,209,5.0,7.0,69,0.00,CLR,,0.00,88.0,WeatherDisplay:10.37,2013-07-22 00:00:00,
2013-07-21 17:05:00,72.8,62.4,29.82,WSW,250,6.6,9.2,70,0.00,CLR,,0.00,90.0,WeatherDisplay:10.37,2013-07-22 00:05:00,
2013-07-21 17:10:00,72.7,62.3,29.82,SW,228,5.4,6.9,70,0.00,CLR,,0.00,93.0,WeatherDisplay:10.37,2013-07-22 00:10:00,
2013-07-21 17:15:00,72.9,62.1,29.82,SSW,209,5.3,8.0,69,0.00,CLR,,0.00,97.0,WeatherDisplay:10.37,2013-07-22 00:15:00,
2013-07-21 17:20:00,73.0,61.8,29.82,West,281,4.5,5.8,68,0.00,CLR,,0.00,104.0,WeatherDisplay:10.37,2013-07-22 00:20:00,
2013-07-21 17:25:00,73.2,61.6,29.82,SW,219,5.7,8.1,67,0.00,CLR,,0.00,111.0,WeatherDisplay:10.37,2013-07-22 00:25:00,
2013-07-21 17:30:00,73.2,62.0,29.82,WSW,246,5.6,8.1,68,0.00,CLR,,0.00,116.0,WeatherDisplay:10.37,2013-07-22 00:30:00,
2013-07-21 17:35:00,73.2,62.0,29.82,West,267,6.3,8.1,68,0.00,CLR,,0.00,121.0,WeatherDisplay:10.37,2013-07-22 00:35:00,
2013-07-21 17:40:00,73.2,62.0,29.81,WSW,248,6.7,9.2,68,0.00,CLR,,0.00,118.0,WeatherDisplay:10.37,2013-07-22 00:40:00,
2013-07-21 17:45:00,73.2,62.0,29.82,SSW,192,6.9,9.2,68,0.00,CLR,,0.00,111.0,WeatherDisplay:10.37,2013-07-22 00:45:00,
2013-07-21 17:50:00,73.0,62.6,29.82,NW,321,4.9,6.9,70,0.00,CLR,,0.00,98.0,WeatherDisplay:10.37,2013-07-22 00:50:00,
2013-07-21 17:55:00,72.8,62.8,29.81,WSW,245,5.7,9.2,71,0.00,CLR,,0.00,84.0,WeatherDisplay:10.37,2013-07-22 00:55:00,
2013-07-21 18:00:00,72.6,62.7,29.81,South,183,5.8,9.2,71,0.00,FEW,,0.00,72.0,WeatherDisplay:10.37,2013-07-22 01:00:00,
2013-07-21 18:05:00,72.4,62.5,29.82,SW,216,4.7,11.5,71,0.00,SCT,,0.00,62.0,WeatherDisplay:10.37,2013-07-22 01:05:00,
2013-07-21 18:10:00,72.1,62.6,29.81,WSW,254,5.7,9.2,72,0.00,SCT,,0.00,54.0,WeatherDisplay:10.37,2013-07-22 01:10:00,
2013-07-21 18:15:00,72.0,62.5,29.82,SSW,198,4.6,8.1,72,0.00,SCT,,0.00,47.0,WeatherDisplay:10.37,2013-07-22 01:15:00,
2013-07-21 18:20:00,72.0,62.5,29.82,West,274,4.2,5.8,72,0.00,BKN,,0.00,40.0,WeatherDisplay:10.37,2013-07-22 01:20:00,
2013-07-21 18:25:00,71.9,62.4,29.82,SSW,211,3.7,4.6,72,0.00,BKN,,0.00,35.0,WeatherDisplay:10.37,2013-07-22 01:25:00,
2013-07-21 18:30:00,72.0,62.1,29.82,WSW,241,2.2,3.5,71,0.00,BKN,,0.00,32.0,WeatherDisplay:10.37,2013-07-22 01:30:00,
2013-07-21 18:35:00,72.0,62.1,29.82,SW,228,3.0,4.6,71,0.00,BKN,,0.00,28.0,WeatherDisplay:10.37,2013-07-22 01:35:00,
2013-07-21 18:40:00,72.1,62.2,29.82,SSW,207,3.0,3.5,71,0.00,BKN,,0.00,26.0,WeatherDisplay:10.37,2013-07-22 01:40:00,
2013-07-21 18:45:00,72.2,61.9,29.82,West,261,2.8,4.0,70,0.00,BKN,,0.00,21.0,WeatherDisplay:10.37,2013-07-22 01:45:00,
2013-07-21 18:50:00,72.3,61.6,29.82,WSW,255,3.2,5.8,69,0.00,BKN,,0.00,19.0,WeatherDisplay:10.37,2013-07-22 01:50:00,
2013-07-21 18:55:00,72.4,61.2,29.82,West,272,2.5,3.5,68,0.00,BKN,,0.00,18.0,WeatherDisplay:10.37,2013-07-22 01:55:00,
2013-07-21 19:00:00,72.5,61.3,29.82,West,260,2.3,5.8,68,0.00,BKN,,0.00,19.0,WeatherDisplay:10.37,2013-07-22 02:00:00,
2013-07-21 19:05:00,72.5,60.9,29.82,WSW,240,1.0,2.0,67,0.00,BKN,,0.00,19.0,WeatherDisplay:10.37,2013-07-22 02:05:00,
2013-07-21 19:10:00,72.6,61.0,29.82,WSW,238,1.5,2.3,67,0.00,BKN,,0.00,19.0,WeatherDisplay:10.37,2013-07-22 02:10:00,
2013-07-21 19:15:00,72.5,62.2,29.82,SW,227,3.8,5.8,70,0.00,BKN,,0.00,18.0,WeatherDisplay:10.37,2013-07-22 02:15:00,
2013-07-21 19:20:00,72.1,62.2,29.82,SW,234,4.5,5.8,71,0.00,BKN,,0.00,14.0,WeatherDisplay:10.37,2013-07-22 02:20:00,
2013-07-21 19:25:00,71.8,61.9,29.82,WSW,252,2.6,4.6,71,0.00,BKN,,0.00,12.0,WeatherDisplay:10.37,2013-07-22 02:25:00,
2013-07-21 19:30:00,71.7,61.8,29.82,SSW,209,1.6,3.5,71,0.00,BKN,,0.00,11.0,WeatherDisplay:10.37,2013-07-22 02:30:00,
2013-07-21 19:35:00,71.8,61.5,29.82,SSW,213,1.9,3.5,70,0.00,BKN,,0.00,5.0,WeatherDisplay:10.37,2013-07-22 02:35:00,
2013-07-21 19:40:00,71.8,61.5,29.82,SSW,194,2.3,3.5,70,0.00,CLR,,0.00,0.0,WeatherDisplay:10.37,2013-07-22 02:40:00,
2013-07-21 19:45:00,71.9,61.2,29.82,SSW,208,1.6,3.5,69,0.00,CLR,,0.00,0.0,WeatherDisplay:10.37,2013-07-22 02:45:00,
2013-07-21 19:50:00,72.0,61.7,29.82,SW,214,2.7,3.5,70,0.00,CLR,,0.00,0.0,WeatherDisplay:10.37,2013-07-22 02:50:00,
2013-07-21 19:55:00,72.0,60.4,29.82,SSW,213,2.1,3.5,67,0.00,CLR,,0.00,0.0,WeatherDisplay:10.37,2013-07-22 02:55:00,
2013-07-21 20:00:00,72.0,60.4,29.83,SW,222,2.7,3.5,67,0.00,CLR,,0.00,0.0,WeatherDisplay:10.37,2013-07-22 03:00:00,
2013-07-21 20:05:00,72.0,59.6,29.83,SW,214,3.3,4.6,65,0.00,CLR,,0.00,0.0,WeatherDisplay:10.37,2013-07-22 03:05:00,
2013-07-21 20:10:00,72.1,58.8,29.83,WSW,243,2.6,4.6,63,0.00,CLR,,0.00,0.0,WeatherDisplay:10.37,2013-07-22 03:10:00,
2013-07-21 20:15:00,72.2,59.8,29.83,SSW,202,0.6,3.5,65,0.00,CLR,,0.00,0.0,WeatherDisplay:10.37,2013-07-22 03:15:00,
2013-07-21 20:20:00,72.2,59.8,29.83,West,261,0.9,3.5,65,0.00,CLR,,0.00,0.0,WeatherDisplay:10.37,2013-07-22 03:20:00,
2013-07-21 20:25:00,72.2,60.2,29.83,SSW,205,1.3,3.5,66,0.00,CLR,,0.00,0.0,WeatherDisplay:10.37,2013-07-22 03:25:00,
2013-07-21 20:30:00,72.1,59.7,29.83,West,267,2.4,3.5,65,0.00,CLR,,0.00,0.0,WeatherDisplay:10.37,2013-07-22 03:30:00,
2013-07-21 20:35:00,72.0,58.3,29.84,SW,223,1.7,4.0,62,0.00,CLR,,0.00,0.0,WeatherDisplay:10.37,2013-07-22 03:35:00,
2013-07-21 20:41:00,72.0,58.3,29.84,SW,214,2.2,3.5,62,0.00,CLR,,0.00,0.0,WeatherDisplay:10.37,2013-07-22 03:41:00,
2013-07-21 20:46:00,72.0,57.8,29.84,WSW,243,1.1,3.5,61,0.00,CLR,,0.00,0.0,WeatherDisplay:10.37,2013-07-22 03:46:00,
2013-07-21 20:51:00,72.1,57.9,29.85,WSW,245,0.0,0.0,61,0.00,CLR,,0.00,0.0,WeatherDisplay:10.37,2013-07-22 03:51:00,
2013-07-21 20:56:00,72.1,58.8,29.85,WSW,245,0.0,0.0,63,0.00,CLR,,0.00,0.0,WeatherDisplay:10.37,2013-07-22 03:56:00,
2013-07-21 21:01:00,72.0,60.0,29.85,WNW,291,0.5,2.3,66,0.00,CLR,,0.00,0.0,WeatherDisplay:10.37,2013-07-22 04:01:00,
2013-07-21 21:06:00,71.8,60.7,29.85,WNW,300,0.3,2.3,68,0.00,CLR,,0.00,0.0,WeatherDisplay:10.37,2013-07-22 04:06:00,
2013-07-21 21:11:00,71.7,62.2,29.85,West,271,0.3,1.1,72,0.00,CLR,,0.00,0.0,WeatherDisplay:10.37,2013-07-22 04:11:00,
2013-07-21 21:16:00,71.5,62.4,29.85,West,271,0.2,0.0,73,0.00,CLR,,0.00,0.0,WeatherDisplay:10.37,2013-07-22 04:16:00,
2013-07-21 21:21:00,71.2,61.7,29.85,West,271,0.0,0.0,72,0.00,CLR,,0.00,0.0,WeatherDisplay:10.37,2013-07-22 04:21:00,
2013-07-21 21:26:00,71.1,61.6,29.86,West,271,0.1,0.0,72,0.00,CLR,,0.00,0.0,WeatherDisplay:10.37,2013-07-22 04:26:00,
2013-07-21 21:31:00,71.0,61.1,29.86,WSW,242,0.2,1.1,71,0.00,CLR,,0.00,0.0,WeatherDisplay:10.37,2013-07-22 04:31:00,
2013-07-21 21:36:00,70.9,61.0,29.86,WSW,242,0.0,0.0,71,0.00,CLR,,0.00,0.0,WeatherDisplay:10.37,2013-07-22 04:36:00,
2013-07-21 21:41:00,70.8,60.1,29.86,WSW,242,0.0,0.0,69,0.00,CLR,,0.00,0.0,WeatherDisplay:10.37,2013-07-22 04:41:00,
2013-07-21 21:46:00,70.8,60.1,29.86,WSW,242,0.0,0.0,69,0.00,CLR,,0.00,0.0,WeatherDisplay:10.37,2013-07-22 04:46:00,
2013-07-21 21:51:00,70.9,60.6,29.86,WSW,242,0.0,0.0,70,0.00,CLR,,0.00,0.0,WeatherDisplay:10.37,2013-07-22 04:51:00,
2013-07-21 21:56:00,70.8,60.1,29.86,WSW,242,0.0,0.0,69,0.00,CLR,,0.00,0.0,WeatherDisplay:10.37,2013-07-22 04:56:00,
2013-07-21 22:01:00,70.9,59.8,29.86,WSW,242,0.0,1.1,68,0.00,CLR,,0.00,0.0,WeatherDisplay:10.37,2013-07-22 05:01:00,
2013-07-21 22:06:00,71.0,60.3,29.86,WSW,242,0.0,0.0,69,0.00,CLR,,0.00,0.0,WeatherDisplay:10.37,2013-07-22 05:06:00,
2013-07-21 22:11:00,71.1,60.0,29.86,WSW,242,0.0,0.0,68,0.00,CLR,,0.00,0.0,WeatherDisplay:10.37,2013-07-22 05:11:00,
2013-07-21 22:17:00,71.2,60.9,29.86,WSW,242,0.1,1.1,70,0.00,CLR,,0.00,0.0,WeatherDisplay:10.37,2013-07-22 05:17:00,
2013-07-21 22:22:00,71.2,60.9,29.86,WSW,242,0.1,1.0,70,0.00,CLR,,0.00,0.0,WeatherDisplay:10.37,2013-07-22 05:22:00,
2013-07-21 22:27:00,71.2,60.9,29.87,WSW,242,0.5,1.1,70,0.00,CLR,,0.00,0.0,WeatherDisplay:10.37,2013-07-22 05:27:00,
2013-07-21 22:32:00,71.3,60.6,29.86,WSW,242,1.0,2.3,69,0.00,CLR,,0.00,0.0,WeatherDisplay:10.37,2013-07-22 05:32:00,
2013-07-21 22:37:00,71.4,60.7,29.86,WSW,242,0.1,0.0,69,0.00,CLR,,0.00,0.0,WeatherDisplay:10.37,2013-07-22 05:37:00,
2013-07-21 22:42:00,71.4,60.7,29.86,SSW,213,1.5,2.3,69,0.00,CLR,,0.00,0.0,WeatherDisplay:10.37,2013-07-22 05:42:00,
2013-07-21 22:47:00,71.4,60.7,29.86,SW,227,1.1,2.3,69,0.00,CLR,,0.00,0.0,WeatherDisplay:10.37,2013-07-22 05:47:00,
2013-07-21 22:52:00,71.4,61.1,29.86,SW,227,1.0,2.3,70,0.00,CLR,,0.00,0.0,WeatherDisplay:10.37,2013-07-22 05:52:00,
2013-07-21 22:57:00,71.4,61.1,29.86,SW,227,0.8,2.3,70,0.00,CLR,,0.00,0.0,WeatherDisplay:10.37,2013-07-22 05:57:00,
2013-07-21 23:02:00,71.4,61.1,29.86,SW,227,0.4,1.1,70,0.00,CLR,,0.00,0.0,WeatherDisplay:10.37,2013-07-22 06:02:00,
2013-07-21 23:07:00,71.4,61.1,29.86,SW,227,0.0,0.0,70,0.00,CLR,,0.00,0.0,WeatherDisplay:10.37,2013-07-22 06:07:00,
2013-07-21 23:12:00,71.5,60.8,29.86,SW,227,0.0,0.0,69,0.00,CLR,,0.00,0.0,WeatherDisplay:10.37,2013-07-22 06:12:00,
2013-07-21 23:17:00,71.5,61.2,29.86,SW,227,0.0,0.0,70,0.00,CLR,,0.00,0.0,WeatherDisplay:10.37,2013-07-22 06:17:00,
2013-07-21 23:22:00,71.4,61.5,29.86,SW,227,0.0,0.0,71,0.00,CLR,,0.00,0.0,WeatherDisplay:10.37,2013-07-22 06:22:00,
2013-07-21 23:27:00,71.3,61.4,29.86,SW,227,0.0,0.0,71,0.00,CLR,,0.00,0.0,WeatherDisplay:10.37,2013-07-22 06:27:00,
2013-07-21 23:32:00,71.3,61.8,29.86,SW,227,0.0,0.0,72,0.00,CLR,,0.00,0.0,WeatherDisplay:10.37,2013-07-22 06:32:00,
2013-07-21 23:37:00,71.2,61.7,29.86,SW,227,1.2,3.5,72,0.00,CLR,,0.00,0.0,WeatherDisplay:10.37,2013-07-22 06:37:00,
2013-07-21 23:42:00,71.1,62.0,29.86,SW,227,0.6,1.1,73,0.00,CLR,,0.00,0.0,WeatherDisplay:10.37,2013-07-22 06:42:00,
2013-07-21 23:47:00,71.0,61.9,29.86,SW,227,0.6,2.3,73,0.00,CLR,,0.00,0.0,WeatherDisplay:10.37,2013-07-22 06:47:00,
2013-07-21 23:52:00,70.9,62.2,29.85,SW,227,1.1,2.3,74,0.00,CLR,,0.00,0.0,WeatherDisplay:10.37,2013-07-22 06:52:00,
2013-07-21 23:57:00,70.8,62.1,29.86,SW,227,1.2,3.5,74,0.00,CLR,,0.00,0.0,WeatherDisplay:10.37,2013-07-22 06:57:00,